Погода в Уне

Россия / Архангельская область     64°36′22″N   38°09′18″E
темп.,
°C
ветер,
м/с
пор.,
м/с
влажн.,
%
обл.,
%
осадки,
мм/ч
давл.,
гПа
погр.,
м
12 апреля, пн
пн1200:00+2зюз615775 0.0 1024972
03:000зюз514845 0.0 1027623
06:00−1юз41190100 0.0 1029367
09:00+2юз5975100 0.0 1030385
12:00+5юз4855100 0.0 1030655
15:00+7ююз3651100 0.1 10281377
18:00+3ююв41289100 1.4 1025698
21:00+7ююз41392100 1.4 1023641
13 апреля, вт
вт1300:00+7ююз51691100 0.0 1023580
03:00+7ююз51391100 0.0 1021445
06:00+6ю41192100 0.0 1020403
09:00+8ююз51181100 0.0 1018503
12:00+9юз51076100 0.0 1018625
15:00+10юз51073100 0.0 1017639
18:00+8ююз4108432 0.0 1017559
21:00+7ююз41192100 0.1 1017380
14 апреля, ср
ср1400:00+6юз41193100 0.3 1017470
03:00+5зюз3797100 0.4 1017357
06:00+4зюз2697100 1.8 1017532
09:00+5юз4976100 2.1 1016696
12:00+6зюз5879100 0.0 1016762
15:00+7з5855100 0.2 10171407
18:00+6зсз3755100 0.0 10171384
21:00+2сз24775 0.0 1020116
15 апреля, чт
чт1500:000сз24885 0.0 102289
03:00−1сз12835 0.0 102451
06:00−1з13795 0.0 1025114
09:00+3зюз34575 0.0 1025729
12:00+4юз445094 0.0 10251089
15:00+5зюз454872 0.0 1025897
18:00+4юз35535 0.0 1024399
21:00+1юз276697 0.0 1023149
16 апреля, пт
пт1600:00+1з27805 0.2 1023219
03:00+1ссз4990100 0.2 1025712
06:00+1с4982100 0.0 10271060
09:00+1с697481 0.0 1031884
12:000с6967100 0.1 10341090
15:00+1с685795 0.1 10361438
18:000с48595 0.0 10361261
21:00−2сз25745 0.0 1036149